Weather History for KCKP - April, 2014

Change the Weather History Date:

Monday, April 14, 2014

  Actual Average Record
Temperature  
Mean Temperature 32 °F -  
Max Temperature 40 °F 55 °F 88 °F (1954)
Min Temperature 24 °F 34 °F 16 °F (1950)
Degree Days  
Heating Degree Days 33    
Moisture  
Dew Point 17 °F    
Average Humidity 59    
Maximum Humidity 82    
Minimum Humidity 31    
Precipitation  
Precipitation 0.00 in - - ()
Sea Level Pressure  
Sea Level Pressure 30.09 in    
Wind  
Wind Speed 17 mph (NNW)    
Max Wind Speed 23 mph    
Max Gust Speed 34 mph    
Visibility 10 miles    
Events      
Averages and records for this station are not official NWS values.
T = Trace of Precipitation, MM = Missing Value Source: NWS Daily Summary

Daily Weather History Graph

Daily Weather History Graph

Search for Another Location

Airport or City:

Trip Planner

Search our weather history database for the weather conditions in past years. The results will help you decide how hot, cold, wet, or windy it might be!

Date:

Astronomy

Apr. 14, 2014 Rise Set
Actual Time 6:42 AM CDT 8:03 PM CDT
Civil Twilight 6:13 AM CDT 8:32 PM CDT
Nautical Twilight 5:37 AM CDT 9:08 PM CDT
Astronomical Twilight 5:00 AM CDT 9:45 PM CDT
Moon 7:42 PM CDT (4/14) 6:16 AM CDT (4/14)
Length of Visible Light 14h 19m
Length of Day
13h 20m
Full, 100% of the Moon is Illuminated
Apr 14
Full
Apr 15
Full
Apr 22
Last Quarter
Apr 29
New
May 6
First Quarter

Hourly Weather History & Observations

Time (CDT) Temp. Windchill Dew Point Humidity Pressure Visibility Wind Dir Wind Speed Gust Speed Precip Events Conditions
12:15 AM 29.7 °F 16.7 °F 24.6 °F 81% 29.97 in 10.0 mi North 20.7 mph 29.9 mph N/A   Overcast
12:35 AM 29.3 °F 17.0 °F 24.4 °F 82% 29.98 in 10.0 mi North 18.4 mph 31.1 mph N/A   Overcast
12:55 AM 29.1 °F 16.4 °F 23.9 °F 81% 29.98 in 10.0 mi North 19.6 mph 29.9 mph N/A   Overcast
1:15 AM 28.9 °F 15.1 °F 23.5 °F 80% 29.97 in 10.0 mi NNW 23.0 mph 34.5 mph N/A   Overcast
1:35 AM 28.4 °F 15.1 °F 23.0 °F 80% 29.98 in 10.0 mi North 20.7 mph 32.2 mph N/A   Overcast
1:55 AM 28.2 °F 14.8 °F 22.8 °F 80% 29.98 in 10.0 mi North 20.7 mph 29.9 mph N/A   Overcast
2:15 AM 27.9 °F 13.7 °F 22.1 °F 79% 29.98 in 10.0 mi North 23.0 mph 32.2 mph N/A   Overcast
2:35 AM 27.3 °F 14.4 °F 21.2 °F 78% 29.97 in 10.0 mi North 18.4 mph 29.9 mph N/A   Mostly Cloudy
2:55 AM 27.0 °F 12.5 °F 21.0 °F 78% 29.98 in 10.0 mi North 23.0 mph 32.2 mph N/A   Scattered Clouds
3:15 AM 26.4 °F 11.8 °F 20.3 °F 78% 29.99 in 10.0 mi North 23.0 mph 31.1 mph N/A   Clear
3:35 AM 26.2 °F 12.2 °F 20.1 °F 78% 29.99 in 10.0 mi North 20.7 mph 32.2 mph N/A   Clear
3:55 AM 26.1 °F 12.7 °F 19.8 °F 77% 30.00 in 10.0 mi North 18.4 mph 32.2 mph N/A   Clear
4:15 AM 26.1 °F 14.5 °F 19.8 °F 77% 30.00 in 10.0 mi North 13.8 mph 27.6 mph N/A   Scattered Clouds
4:35 AM 25.7 °F 12.3 °F 19.4 °F 77% 30.01 in 10.0 mi NNW 18.4 mph 26.5 mph N/A   Clear
4:55 AM 25.7 °F 11.2 °F 19.4 °F 77% 30.03 in 10.0 mi NNW 21.9 mph 32.2 mph N/A   Clear
5:15 AM 25.5 °F 12.9 °F 19.4 °F 78% 30.03 in 10.0 mi North 16.1 mph 25.3 mph N/A   Scattered Clouds
5:35 AM 25.3 °F 11.8 °F 19.0 °F 77% 30.03 in 10.0 mi NNW 18.4 mph 28.8 mph N/A   Mostly Cloudy
5:55 AM 25.3 °F 11.8 °F 18.9 °F 76% 30.04 in 10.0 mi North 18.4 mph 26.5 mph N/A   Mostly Cloudy
6:15 AM 25.3 °F 11.0 °F 19.0 °F 77% 30.05 in 10.0 mi North 20.7 mph 28.8 mph N/A   Mostly Cloudy
6:35 AM 25.2 °F 12.9 °F 19.0 °F 78% 30.05 in 10.0 mi North 15.0 mph 23.0 mph N/A   Mostly Cloudy
6:55 AM 25.0 °F 10.9 °F 18.9 °F 78% 30.07 in 10.0 mi NNW 19.6 mph 26.5 mph N/A   Mostly Cloudy
7:15 AM 24.8 °F 10.3 °F 18.5 °F 77% 30.09 in 10.0 mi North 20.7 mph 27.6 mph N/A   Mostly Cloudy
7:35 AM 25.0 °F 11.3 °F 18.3 °F 76% 30.10 in 10.0 mi NNW 18.4 mph 24.2 mph N/A   Mostly Cloudy
7:55 AM 25.2 °F 12.0 °F 18.1 °F 75% 30.10 in 10.0 mi North 17.3 mph 26.5 mph N/A   Scattered Clouds
8:15 AM 25.5 °F 14.9 °F 18.3 °F 74% 30.11 in 10.0 mi NNW 11.5 mph - N/A   Clear
8:35 AM 25.7 °F 13.5 °F 18.5 °F 74% 30.12 in 10.0 mi NNW 15.0 mph 20.7 mph N/A   Clear
8:55 AM 26.4 °F 15.0 °F 18.3 °F 71% 30.12 in 10.0 mi NNW 13.8 mph 17.3 mph N/A   Clear
9:15 AM 26.8 °F 15.9 °F 18.1 °F 70% 30.13 in 10.0 mi NNW 12.7 mph 18.4 mph N/A   Clear
9:35 AM 27.5 °F 15.9 °F 18.0 °F 67% 30.13 in 10.0 mi NNW 15.0 mph - N/A   Clear
9:55 AM 28.4 °F 17.5 °F 17.8 °F 64% 30.13 in 10.0 mi NNW 13.8 mph 18.4 mph N/A   Clear
10:15 AM 29.1 °F 17.9 °F 16.9 °F 60% 30.14 in 10.0 mi NNW 15.0 mph 20.7 mph N/A   Clear
10:35 AM 29.5 °F 17.2 °F 16.7 °F 59% 30.15 in 10.0 mi NNW 18.4 mph 21.9 mph N/A   Clear
10:55 AM 30.0 °F 21.1 °F 16.5 °F 57% 30.16 in 10.0 mi NNW 10.4 mph - N/A   Clear
11:15 AM 30.4 °F 18.7 °F 15.6 °F 54% 30.16 in 10.0 mi NNW 17.3 mph 20.7 mph N/A   Clear
11:35 AM 30.9 °F 19.8 °F 16.0 °F 54% 30.16 in 10.0 mi NNW 16.1 mph 20.7 mph N/A   Clear
11:55 AM 32.0 °F 21.6 °F 16.3 °F 52% 30.16 in 10.0 mi North 15.0 mph 23.0 mph N/A   Clear
12:35 PM 32.9 °F 22.8 °F 12.9 °F 44% 30.16 in 10.0 mi North 15.0 mph 20.7 mph N/A   Clear
12:55 PM 33.4 °F 22.7 °F 12.7 °F 42% 30.16 in 10.0 mi North 17.3 mph 21.9 mph N/A   Clear
1:15 PM 34.9 °F 24.6 °F 14.0 °F 42% 30.15 in 10.0 mi North 17.3 mph 21.9 mph N/A   Clear
1:35 PM 35.6 °F 27.1 °F 14.9 °F 43% 30.15 in 10.0 mi North 12.7 mph 20.7 mph N/A   Clear
1:55 PM 36.9 °F 27.8 °F 16.7 °F 44% 30.14 in 10.0 mi North 15.0 mph 21.9 mph N/A   Clear
2:15 PM 38.3 °F 30.5 °F 16.0 °F 40% 30.14 in 10.0 mi North 12.7 mph 18.4 mph N/A   Clear
2:35 PM 39.2 °F 31.2 °F 16.5 °F 40% 30.13 in 10.0 mi North 13.8 mph 20.7 mph N/A   Scattered Clouds
2:55 PM 40.1 °F 32.0 °F 15.4 °F 37% 30.12 in 10.0 mi North 15.0 mph 23.0 mph N/A   Scattered Clouds
3:15 PM 39.6 °F 32.5 °F 12.9 °F 34% 30.12 in 10.0 mi NNW 11.5 mph 21.9 mph N/A   Scattered Clouds
3:35 PM 40.1 °F 32.4 °F 13.6 °F 34% 30.11 in 10.0 mi NNW 13.8 mph 20.7 mph N/A   Scattered Clouds
3:55 PM 40.5 °F 32.8 °F 14.0 °F 34% 30.11 in 10.0 mi NNW 13.8 mph 23.0 mph N/A   Mostly Cloudy
4:15 PM 38.1 °F 30.7 °F 10.6 °F 32% 30.11 in 10.0 mi NNW 11.5 mph 21.9 mph N/A   Scattered Clouds
4:35 PM 39.2 °F 29.8 °F 12.4 °F 33% 30.11 in 10.0 mi NNW 18.4 mph 23.0 mph N/A   Mostly Cloudy
4:55 PM 39.9 °F 33.4 °F 11.7 °F 31% 30.11 in 10.0 mi NNW 10.4 mph 27.6 mph N/A   Mostly Cloudy
5:15 PM 38.8 °F 30.4 °F 10.9 °F 32% 30.11 in 10.0 mi NW 15.0 mph 20.7 mph N/A   Overcast
5:35 PM 39.4 °F 31.4 °F 12.2 °F 33% 30.11 in 10.0 mi North 13.8 mph 21.9 mph N/A   Mostly Cloudy
5:55 PM 38.7 °F 29.8 °F 12.7 °F 35% 30.11 in 10.0 mi NNW 16.1 mph 21.9 mph N/A   Overcast
6:15 PM 37.8 °F 30.7 °F 11.1 °F 33% 30.11 in 10.0 mi North 10.4 mph - N/A   Overcast
6:35 PM 38.1 °F 28.8 °F 12.0 °F 34% 30.12 in 10.0 mi NNW 17.3 mph - N/A   Mostly Cloudy
6:55 PM 36.0 °F 32.1 °F 11.8 °F 37% 30.12 in 10.0 mi NNW 4.6 mph 9.2 mph N/A   Scattered Clouds
7:15 PM 35.6 °F 27.1 °F 12.4 °F 38% 30.12 in 10.0 mi NNW 12.7 mph - N/A   Mostly Cloudy
7:35 PM 35.1 °F 27.4 °F 12.9 °F 40% 30.12 in 10.0 mi NNW 10.4 mph 16.1 mph N/A   Mostly Cloudy
7:55 PM 34.2 °F 27.5 °F 14.2 °F 44% 30.13 in 10.0 mi North 8.1 mph - N/A   Mostly Cloudy
8:15 PM 32.7 °F 26.4 °F 14.5 °F 47% 30.13 in 10.0 mi North 6.9 mph - N/A   Scattered Clouds
8:35 PM 32.0 °F 26.4 °F 15.4 °F 51% 30.14 in 10.0 mi North 5.8 mph - N/A   Clear
8:55 PM 31.5 °F 28.1 °F 15.8 °F 52% 30.14 in 10.0 mi North 3.5 mph - N/A   Clear
9:15 PM 29.8 °F 24.9 °F 16.7 °F 58% 30.15 in 10.0 mi North 4.6 mph - N/A   Clear
9:35 PM 28.9 °F 22.8 °F 17.1 °F 61% 30.15 in 10.0 mi North 5.8 mph - N/A   Clear
9:55 PM 28.4 °F 22.2 °F 17.4 °F 63% 30.15 in 10.0 mi North 5.8 mph - N/A   Clear
10:15 PM 27.5 °F 23.6 °F 17.2 °F 65% 30.16 in 10.0 mi NNW 3.5 mph - N/A   Clear
10:35 PM 26.8 °F 22.8 °F 17.2 °F 67% 30.16 in 10.0 mi North 3.5 mph - N/A   Clear
11:15 PM 27.0 °F 18.7 °F 18.1 °F 69% 30.16 in 10.0 mi North 8.1 mph - N/A   Clear
11:35 PM 27.0 °F 18.7 °F 18.1 °F 69% 30.16 in 10.0 mi North 8.1 mph - N/A   Clear